星链-36953(STARLINK-36953)

导读

STARLINK-36953(NORAD编号68010)是美国SpaceX公司星链(Starlink)星座的一员,属于第二代低轨互联网通信卫星。星链计划旨在构建覆盖全球的低轨卫星互联网系统,该卫星运行在近地轨道,参与提供高速、低时延的全球宽带互联网接入服务,可支持消费级互联网应用及特殊场景通信需求。 作为SpaceX大规模星座部署的组成部分,它配备氩气离子推进系统用于轨道机动与受控脱轨,符合SpaceX降低太空碰撞风险、减少轨道碎片的安全设计理念,当前已纳入2026年星链星座轨道调整计划范围内,是全球低轨卫星通信网络建设的典型单元。(字数148)

Basic Information
目录编号:
68010
目录名称:
STARLINK-36953
国际标识:
2026-039AA
轨道中心:
EARTH
卫星名称:
星链-36953
卫星全名:
星链-36953(STARLINK-36953)
卫星状态:
在轨 (已飞行189 天)
发射日期:
2026-02-27 UTC
国别 :
美国 (US)
星等 :
--
Orbit Information
数据来源 国际轨道数据
星历时间: 2026-09-03T11:16:45+0800
1天前
查看轨道信息
半长轴: 6861.142km
偏心率: 0.0001398
轨道倾角: 43.001°
近地点辐角 271.846°
升交点赤经 126.614°
平近点角 88.224°
近地点: 482.045km
远地点: 483.965km
周期: 94.266分钟
每日圈数: 15.275948
Detailed Information
固有亮度:
5
最大亮度:
2.5
卫星平台:
Starlink V1.0
覆盖范围:
全球
运营商:
太空探索技术公司
运营商所在国:
美国
制造商(研发单位):
太空探索技术公司
制造商所在国:
美国
使用方式:
暂无
Satellite Introduction
Starlink 计划是 SpaceX 推出的全球卫星互联网项目,通过发射低轨道卫星,为全球尤其是偏远地区提供高速、低延迟的互联网服务。自 2019 年起,Starlink 已部署数千颗卫星,旨在缩小全球数字鸿沟,推动互联网普及。该项目还为军事、航空等行业提供通信支持,带来广泛经济效益。
2D Orbit Map
3D Orbit Map
Orbit Altitude Analysis Chart
Orbit Inclination Analysis Chart
Orbit Comprehensive Analysis Chart
View Comprehensive Chart
Conjunction Data List
Event ID Objects TCA Miss Dist (km) Collision Risk Probability Collision Risk Index (CRI) Action
CDM_260905-135405-817606-801021
2026-09-05T
13:54:00+0000
0.319 km
远距离
3.453323E-4 高风险 0.86
CDM_260828-170706-204306-801021
2026-08-28T
17:07:49+0000
0.814 km
远距离
4.082146E-5 中风险 0.67
CDM_260828-153306-204306-801021
2026-08-28T
15:33:40+0000
1.373 km
极远距离
6.842609E-6 低风险 0.52
CDM_260905-121905-817606-801021
2026-09-05T
12:19:51+0000
1.427 km
极远距离
5.055505E-6 低风险 0.49
CDM_260828-135906-204306-801021
2026-08-28T
13:59:31+0000
2.064 km
极远距离
2.060167E-6 低风险 0.41
CDM_260905-152805-817606-801021
2026-09-05T
15:28:10+0000
2.071 km
极远距离
1.744229E-6 低风险 0.4
CDM_260906-031405-817606-801021
2026-09-06T
03:14:19+0000
2.537 km
极远距离
1.162954E-6 低风险 0.36